SCP
0 0 0 0 0 0 0 0 0 0 0 0 0 0 0 0 0 0 0 0 0 0 0 0 0 0 0 0 0 0 0 0 0 0 0 0 0 0 0 0 0 0 0
0 0 0 0 0 0 0 0 0 0 0 0 0 0 0 0 0 0 0 0 0 0 0 0 0 0 0 0 0 0 0 0 0 0 0 0 0 0 0 0 0 0 0
0 0 0 0 0 0 0 0 0 0 0 0 0 0 0 0 0 0 0 0 0 0 0 0 0 0 0 0 0 0 0 0 0 0 0 0 0 0 0 0 0 0 0
0 0 0 0 0 0 0 0 0 0 0 0 0 0 0 0 0 0 0 0 0 0 0 0 0 0 0 0 0 0 0 0 0 0 0 0 0 0 0 0 0 0 0
0 0 0 0 0 0 0 0 0 0 0 0 0 0 0 0 0 0 0 0 0 0 0 0 0 0 0 0 0 0 0 0 0 0 0 0 0 0 0 0 0 0 0
0 0 0 0 0 0 0 0 0 0 0 0 0 0 0 0 0 0 0 0 0 0 0 0 0 0 0 0 0 0 0 0 0 0 0 0 0 0 0 0 0 0 0
0 0 0 0 0 0 0 0 0 0 0 0 0 0 0 0 0 0 0 0 0 0 0 0 0 0 0 0 0 0 0 0 0 0 0 0 0 0 0 0 0 0 0
0 0 0 0 0 0 0 0 0 0 0 0 0 0 0 0 0 0 0 0 0 0 0 0 0 0 0 0 0 0 0 0 0 0 0 0 0 0 0 0 0 0 0
0 0 0 0 0 0 0 0 0 0 0 0 0 0 0 0 0 0 0 0 0 0 0 0 0 0 0 0 0 0 0 0 0 0 0 0 0 0 0 0 0 0 0
0 0 0 0 0 0 0 0 0 0 0 0 0 0 0 0 0 0 0 0 0 0 0 0 0 0 0 0 0 0 0 0 0 0 0 0 0 0 0 0 0 0 0
0 0 0 0 0 0 0 0 0 0 0 0 0 0 0 0 0 0 0 0 0 0 0 0 0 0 0 0 0 0 0 0 0 0 0 0 0 0 0 0 0 0 0
0 0 0 0 0 0 0 0 0 0 0 0 0 0 0 0 0 0 0 0 0 0 0 0 0 0 0 0 0 0 0 0 0 0 0 0 0 0 0 0 0 0 0
0 0 0 0 0 0 0 0 0 0 0 0 0 0 0 0 0 0 0 0 0 0 0 0 0 0 0 0 0 0 0 0 0 0 0 0 0 0 0 0 0 0 0
0 0 0 0 0 0 0 0 0 0 0 0 0 0 0 0 0 0 0 0 0 0 0 0 0 0 0 0 0 0 0 0 0 0 0 0 0 0 0 0 0 0 0
0 0 0 0 0 0 0 0 0 0 0 0 0 0 0 0 0 0 0 0 0 0 0 0 0 0 0 0 0 0 0 0 0 0 0 0 0 0 0 0 0 0 0
0 0 0 0 0 0 0 0 0 0 0 0 0 0 0 0 0 0 0 0 0 0 0 0 0 0 0 0 0 0 0 0 0 0 0 0 0 0 0 0 0 0 0
0 0 0 0 0 0 0 0 0 0 0 0 0 0 0 0 0 0 0 0 0 0 0 0 0 0 0 0 0 0 0 0 0 0 0 0 0 0 0 0 0 0 0
0 0 0 0 0 0 0 0 0 0 0 0 0 0 0 0 0 0 0 0 0 0 0 0 0 0 0 0 0 0 0 0 0 0 0 0 0 0 0 0 0 0 0
0 0 0 0 0 0 0 0 0 0 0 0 0 0 0 0 0 0 0 0 0 0 0 0 0 0 0 0 0 0 0 0 0 0 0 0 0 0 0 0 0 0 0
0 0 0 0 0 0 0 0 0 0 0 0 0 0 0 0 0 0 0 0 0 0 0 0 0 0 0 0 0 0 0 0 0 0 0 0 0 0 0 0 0 0 0
0 0 0 0 0 0 0 0 0 0 0 0 0 0 0 0 0 0 0 0 0 0 0 0 0 0 0 0 0 0 0 0 0 0 0 0 0 0 0 0 0 0 0
0 0 0 0 0 0 0 0 0 0 0 0 0 0 0 0 0 0 0 0 0 0 0 0 0 0 0 0 0 0 0 0 0 0 0 0 0 0 0 0 0 0 0
0 0 0 0 0 0 0 0 0 0 0 0 0 0 0 0 0 0 0 0 0 0 0 0 0 0 0 0 0 0 0 0 0 0 0 0 0 0 0 0 0 0 0
0 0 0 0 0 0 0 0 0 0 0 0 0 0 0 0 0 0 0 0 0 0 0 0 0 0 0 0 0 0 0 0 0 0 0 0 0 0 0 0 0 0 0
0 0 0 0 0 0 0 0 0 0 0 0 0 0 0 0 0 0 0 0 0 0 0 0 0 0 0 0 0 0 0 0 0 0 0 0 0 0 0 0 0 0 0
0 0 0 0 0 0 0 0 0 -0 -0 0 0 0 0 0 0 0 0 0 0 0 0 0 0 0 0 0 0 0 0 0 0 0 0 0 0 0 0 0 0 0 0
Wind_Speed
4 5 5 6 7 7 7 7 7 7 7 7 7 7 7 6 6 6 6 6 6 6 6 6 7 7 8 8 8 8 9 9 9 9 9 10 10 10 9 9 9 7 10
4 6 6 7 7 7 7 7 8 8 8 7 7 8 7 7 6 6 6 6 6 6 6 6 6 7 7 7 7 7 8 7 7 7 8 8 8 9 9 9 9 6 10
6 6 6 7 7 7 7 7 8 8 8 8 8 8 8 8 7 7 6 6 5 5 5 6 6 6 6 6 6 6 6 6 5 5 5 3 5 8 9 9 8 9 9
6 6 5 7 7 7 8 8 8 8 8 8 8 8 7 7 7 7 6 6 5 4 4 4 5 6 6 6 5 5 4 4 4 2 2 3 4 7 8 9 9 9 9
6 6 7 7 7 7 7 8 8 8 8 8 8 8 8 8 7 7 7 6 6 5 4 4 5 5 5 5 4 4 3 3 2 2 2 4 4 6 7 8 8 8 8
5 6 7 8 7 7 7 7 7 7 7 8 8 8 7 7 7 7 7 6 6 5 4 4 4 4 4 4 3 3 3 2 1 1 2 3 4 6 7 6 7 7 7
5 6 5 7 7 7 7 7 7 6 6 6 7 7 7 7 7 6 6 6 5 5 5 5 3 3 3 4 3 2 2 2 1 2 2 3 4 7 7 6 6 7 7
5 6 5 6 7 7 6 6 6 6 6 6 6 6 6 6 6 6 6 6 5 5 4 4 4 2 3 3 2 2 1 1 2 2 3 3 6 6 6 6 6 6 6
5 6 4 4 5 6 7 6 6 6 6 5 6 6 6 6 6 6 5 5 5 5 4 3 3 1 2 2 1 1 0 1 1 1 2 3 5 6 5 5 5 5 5
5 5 4 3 3 3 3 5 6 6 5 5 5 5 5 5 5 5 5 5 5 4 4 3 3 1 1 1 0 1 0 0 1 1 1 3 5 5 4 4 4 4 4
6 5 4 4 3 3 2 4 4 4 5 4 4 5 4 2 2 3 4 5 5 4 3 3 3 2 0 1 1 1 1 1 1 1 2 4 4 4 3 3 3 3 4
4 4 4 4 4 4 3 2 1 2 2 2 2 3 2 2 2 3 4 4 4 4 3 3 3 2 1 1 1 1 0 1 0 1 2 4 4 3 3 3 3 3 3
3 4 4 4 4 3 3 2 2 1 1 2 3 3 2 2 2 2 2 2 2 2 2 2 2 1 0 0 1 1 0 1 1 1 2 4 3 3 3 3 2 3 3
3 3 4 4 4 3 3 2 2 2 2 2 2 3 2 2 2 2 2 2 2 1 2 1 1 1 1 0 1 1 1 1 1 1 2 3 3 3 3 3 3 2 3
3 3 3 4 3 3 3 2 3 2 2 2 2 2 3 2 2 2 2 2 2 2 2 2 2 2 1 1 1 1 1 1 1 1 2 3 3 2 2 2 2 2 2
3 3 3 3 3 3 3 2 2 2 2 2 2 3 3 2 2 2 2 2 2 2 2 1 1 2 1 1 1 1 0 0 0 1 1 1 2 1 1 1 1 1 1
3 3 3 3 3 3 3 3 2 2 2 2 2 3 3 2 2 2 2 2 2 2 2 2 1 1 1 1 1 0 0 0 0 0 1 1 1 1 1 1 1 1 1
4 4 4 4 4 3 3 2 2 2 2 2 2 2 3 3 2 2 2 2 2 2 2 1 1 1 1 1 1 1 1 0 0 0 1 1 1 1 0 1 1 1 1
4 4 4 3 3 3 3 2 2 3 3 2 2 2 2 2 2 2 1 1 2 2 2 2 2 1 1 1 1 1 1 0 0 0 0 1 1 1 1 1 1 1 0
4 4 4 3 3 2 2 2 2 3 3 2 2 2 3 3 3 2 1 2 2 2 2 2 2 2 1 1 1 1 1 1 0 0 1 0 1 1 1 1 1 1 0
4 4 4 3 3 2 2 2 2 2 2 3 2 2 3 3 3 2 2 2 2 1 2 2 1 2 1 1 1 1 1 1 0 0 0 0 1 1 1 1 0 0 0
4 3 3 3 3 2 2 1 1 1 1 2 2 3 2 2 2 2 2 2 2 1 2 2 2 1 1 1 0 0 1 1 1 1 0 1 1 0 1 1 0 1 1
3 3 3 3 2 2 2 1 2 2 2 2 2 2 2 2 2 2 2 2 2 1 1 1 1 1 1 1 0 0 0 1 1 1 1 0 0 0 0 0 1 0 1
2 2 2 3 2 2 2 1 1 1 2 2 2 2 3 2 2 2 2 1 1 2 1 1 1 1 0 1 1 1 1 0 1 1 1 0 0 0 1 0 0 0 1
2 1 2 2 2 2 2 1 1 1 2 2 2 2 3 2 1 1 2 1 1 1 1 2 2 1 1 1 1 1 1 1 1 1 1 1 1 0 0 0 0 0 1
2 1 1 1 2 2 2 2 2 2 2 2 3 3 2 2 1 1 1 1 1 1 0 1 1 1 1 1 1 1 0 0 1 0 1 1 1 1 1 0 0 0 0
Wind_Direction
76 82 62 52 51 50 50 52 52 49 46 47 50 53 55 56 61 64 66 71 73 73 76 84 84 79 77 76 76 78 79 83 83 82 85 88 90 89 87 85 85 84 88
89 92 71 58 56 54 53 54 52 49 46 47 49 51 51 49 55 62 64 67 70 73 77 83 86 83 79 79 78 77 82 82 83 81 85 87 89 87 83 82 86 90 92
83 89 79 59 59 57 54 55 53 50 46 48 49 49 49 48 49 53 56 61 67 70 74 81 88 88 83 80 76 75 81 81 81 85 89 91 92 90 86 85 88 88 90
78 88 80 63 61 59 57 57 54 50 46 48 51 51 49 47 45 45 48 50 54 61 63 75 87 96 94 86 81 76 75 74 71 69 91 94 93 96 93 89 86 90 88
74 82 78 66 64 62 62 58 54 51 48 47 50 50 48 46 44 42 42 43 46 51 60 68 85 96 99 94 90 82 71 58 57 48 66 78 85 94 95 91 89 89 88
73 80 81 66 63 62 63 59 55 52 49 48 49 47 45 44 43 41 39 39 42 45 54 64 77 95 103 103 96 88 67 45 44 57 70 80 88 92 98 96 96 93 92
71 77 84 68 61 59 61 59 54 50 49 52 49 44 42 42 42 39 35 30 34 46 50 52 62 93 101 106 104 83 56 45 71 57 71 76 91 95 93 96 100 99 94
68 77 84 65 61 55 55 56 53 50 50 52 50 45 41 39 39 38 35 30 30 41 49 47 40 68 100 110 119 106 51 24 68 63 74 79 98 104 100 100 102 102 100
66 76 81 71 63 55 50 51 53 48 48 48 47 44 41 40 40 39 38 33 31 34 40 44 35 52 104 117 125 124 66 36 54 44 78 88 99 109 112 106 106 107 106
56 61 72 72 67 62 54 46 48 47 43 40 40 37 35 34 35 34 35 34 32 31 31 38 32 49 103 125 117 336 294 210 117 54 69 96 107 117 114 107 104 113 119
44 41 45 48 47 48 57 50 44 48 41 36 31 28 30 28 32 31 34 30 27 23 20 30 25 25 76 197 265 285 272 153 138 88 74 97 112 123 126 118 120 121 123
40 35 38 38 36 30 27 43 29 47 41 24 25 21 16 21 25 30 29 30 21 10 7 15 4 346 260 215 257 261 218 128 138 90 85 111 128 140 153 142 137 136 134
49 39 41 38 35 29 24 25 11 26 29 25 27 13 19 31 31 28 13 12 1 3 353 342 317 297 258 184 157 161 115 95 79 81 97 115 127 150 169 170 157 151 152
51 41 42 39 37 30 28 24 18 25 23 26 24 16 21 28 27 18 16 4 352 353 341 326 320 315 321 15 139 143 115 94 113 105 94 106 123 156 175 181 175 165 161
53 41 39 38 36 32 29 13 20 22 21 20 32 27 32 31 23 15 10 5 353 357 349 342 357 351 355 16 43 67 86 106 116 121 103 95 112 142 174 188 193 189 167
50 48 44 39 36 38 32 21 13 15 8 15 33 25 29 30 24 16 14 6 354 350 342 336 347 6 346 19 50 51 17 338 140 135 131 117 105 131 162 171 188 166 174
45 51 53 44 41 37 28 18 22 7 1 13 25 27 28 23 16 17 12 1 352 347 340 341 353 30 6 16 39 38 309 4 99 115 131 133 144 131 134 160 175 186 182
44 47 48 41 34 27 23 16 19 18 4 7 15 21 27 22 15 11 12 3 352 351 351 356 12 40 30 17 21 3 358 41 200 182 117 124 137 143 157 138 142 172 200
46 44 43 45 41 26 16 16 26 23 7 3 14 11 20 18 11 16 13 358 1 11 8 357 19 39 41 22 9 1 3 356 324 173 127 144 139 143 151 120 121 133 18
47 46 45 34 31 29 18 15 28 21 3 358 9 7 16 14 16 21 19 7 15 30 17 18 20 27 36 20 353 348 339 328 21 91 216 182 141 148 155 156 161 159 126
47 38 36 31 18 21 15 7 13 359 347 352 356 358 11 10 13 22 19 18 17 30 25 23 31 31 10 29 29 339 325 294 251 271 223 187 166 155 140 152 144 143 122
52 36 32 29 17 8 3 354 348 331 330 344 350 349 356 5 15 21 25 13 10 18 28 22 32 28 351 19 74 337 318 339 320 290 241 194 207 150 151 139 145 123 80
51 29 15 17 10 358 2 10 5 359 354 358 346 339 341 357 18 30 27 13 1 21 29 14 23 40 353 321 16 139 176 223 309 303 268 161 153 183 192 173 153 129 116
58 37 13 10 3 1 10 22 25 2 331 314 315 324 334 350 4 24 17 7 3 13 9 349 17 23 42 308 326 330 251 182 178 311 310 333 114 97 61 43 67 89 102
71 54 16 2 357 359 357 351 345 335 323 325 327 331 333 331 356 8 359 3 1 12 11 357 360 7 5 339 307 315 318 316 263 189 258 298 332 349 58 58 55 53 73
82 62 20 351 344 345 343 335 340 336 336 337 336 330 325 315 326 342 333 342 334 344 21 353 348 346 341 337 325 315 234 270 286 261 243 277 287 287 295 216 92 67 61